Location: Emblem
(62.4273°N, 6.4710°E)
Time: 15:16:34
(UTC+02:00)

Altair - Pass Details

Date: 13 February 2023
Orbit: 1501 x 1682 km, 47.2° (Epoch: 31 March)

Event Time Altitude Azimuth Distance (km) Brightness Sun altitude
Rises 21:44:12 0° 265° (W) 4,781 10.8 -31.0°
Reaches altitude 10° 21:47:48 10° 254° (WSW) 3,823 10.0 -31.4°
Maximum altitude 21:55:34 28° 201° (SSW) 2,716 8.6 -32.1°
Enters shadow 21:56:08 28° 196° (SSW) 2,726 8.5 -32.1°
